Location: Noyers
(47.2770°N, 1.4032°E)
Time: 22:14:24
(UTC+00:00)

Cosmos 2082 Rocket - Pass Details

Date: 15 May 2026
Orbit: 832 x 852 km, 71.0° (Epoch: 6 June)

Event Time Altitude Azimuth Distance (km) Brightness Sun altitude
Rises 20:36:59 0° 219° (SW) 3,409 5.3 -10.7°
Reaches altitude 10° 20:39:29 10° 224° (SW) 2,477 4.6 -11.0°
Maximum altitude 20:45:05 56° 302° (WNW) 1,008 3.0 -11.7°
Drops below altitude 10° 20:50:42 10° 21° (NNE) 2,486 5.0 -12.3°
Sets 20:53:13 0° 25° (NNE) 3,423 5.7 -12.6°
